• In Hungary
  • List of Countries
  • For 7 days
  • Water Temperature
  • Satellite Maps
  • Weather Map
  • News
  • Weather Widgets
  • user-avatar
    Login

    Hourly Weather Lisishnoe

    Today, 20 June, Wednesday

    Time Temperature Precipitation Wind Pressure Humidity
    00:00 +14°C° 0.1 mm 5 mps 736 mmHg 87%
    01:00 +13°C° 0.1 mm 4 mps 737 mmHg 90%
    02:00 +11°C° 0.1 mm 4 mps 737 mmHg 93%
    03:00 +11°C° 0 mm 4 mps 737 mmHg 91%
    04:00 +10°C° 0 mm 5 mps 737 mmHg 88%
    05:00 +10°C° 0 mm 5 mps 737 mmHg 86%
    06:00 +13°C° 0 mm 5 mps 737 mmHg 75%
    07:00 +15°C° 0 mm 6 mps 737 mmHg 65%
    08:00 +16°C° 0 mm 6 mps 737 mmHg 55%
    09:00 +17°C° 0 mm 6 mps 737 mmHg 50%
    10:00 +19°C° 0 mm 6 mps 737 mmHg 44%
    11:00 +20°C° 0 mm 7 mps 737 mmHg 39%
    12:00 +20°C° 0 mm 6 mps 737 mmHg 42%
    13:00 +20°C° 0 mm 6 mps 737 mmHg 44%
    14:00 +19°C° 0 mm 6 mps 737 mmHg 47%
    15:00 +19°C° 0 mm 5 mps 737 mmHg 48%
    16:00 +17°C° 0 mm 5 mps 738 mmHg 49%
    17:00 +17°C° 0 mm 5 mps 738 mmHg 51%
    18:00 +16°C° 0 mm 5 mps 738 mmHg 54%
    19:00 +17°C° 0 mm 4 mps 738 mmHg 56%
    20:00 +15°C° 0 mm 4 mps 738 mmHg 59%
    21:00 +14°C° 0 mm 4 mps 739 mmHg 61%
    22:00 +13°C° 0 mm 3 mps 739 mmHg 64%
    23:00 +12°C° 0 mm 3 mps 739 mmHg 66%

    Tomorrow, 21 June, Thursday

    Time Temperature Precipitation Wind Pressure Humidity
    00:00 +11°C° 0 mm 3 mps 739 mmHg 69%
    01:00 +11°C° 0 mm 3 mps 739 mmHg 72%
    02:00 +10°C° 0 mm 3 mps 739 mmHg 75%
    03:00 +10°C° 0 mm 3 mps 740 mmHg 72%
    04:00 +11°C° 0 mm 3 mps 740 mmHg 68%
    05:00 +11°C° 0 mm 4 mps 740 mmHg 65%
    06:00 +13°C° 0 mm 4 mps 740 mmHg 61%
    07:00 +14°C° 0 mm 4 mps 740 mmHg 57%
    08:00 +15°C° 0 mm 4 mps 740 mmHg 53%
    09:00 +17°C° 0 mm 4 mps 740 mmHg 54%
    10:00 +17°C° 0 mm 4 mps 740 mmHg 56%
    11:00 +18°C° 0 mm 4 mps 739 mmHg 57%
    12:00 +18°C° 0.1 mm 4 mps 739 mmHg 63%
    13:00 +18°C° 0.1 mm 4 mps 739 mmHg 68%
    14:00 +18°C° 0.1 mm 4 mps 739 mmHg 74%
    15:00 +18°C° 0 mm 4 mps 739 mmHg 75%
    16:00 +19°C° 0 mm 4 mps 739 mmHg 75%
    17:00 +19°C° 0 mm 3 mps 739 mmHg 76%
    18:00 +18°C° 0 mm 3 mps 739 mmHg 80%
    19:00 +18°C° 0 mm 2 mps 739 mmHg 85%
    20:00 +18°C° 0 mm 1 mps 738 mmHg 90%
    21:00 +16°C° 0 mm 2 mps 738 mmHg 92%
    22:00 +16°C° 0 mm 2 mps 738 mmHg 94%
    23:00 +15°C° 0 mm 2 mps 738 mmHg 96%

    Day after tomorrow, 22 June, Friday

    Time Temperature Precipitation Wind Pressure Humidity
    00:00 +14°C° 0 mm 3 mps 738 mmHg 95%
    01:00 +14°C° 0 mm 3 mps 738 mmHg 94%
    02:00 +14°C° 0 mm 3 mps 738 mmHg 94%
    03:00 +16°C° 0 mm 3 mps 737 mmHg 91%
    04:00 +17°C° 0 mm 4 mps 737 mmHg 89%
    05:00 +17°C° 0 mm 4 mps 736 mmHg 86%
    06:00 +19°C° 0 mm 5 mps 736 mmHg 79%
    07:00 +21°C° 0 mm 5 mps 736 mmHg 72%
    08:00 +23°C° 0 mm 6 mps 735 mmHg 65%
    09:00 +23°C° 0.1 mm 6 mps 735 mmHg 66%
    10:00 +23°C° 0.1 mm 6 mps 734 mmHg 68%
    11:00 +24°C° 0.1 mm 6 mps 734 mmHg 70%
    12:00 +24°C° 0.5 mm 7 mps 734 mmHg 72%
    13:00 +24°C° 0.5 mm 7 mps 734 mmHg 73%
    14:00 +24°C° 0.5 mm 7 mps 734 mmHg 75%
    15:00 +22°C° 1.2 mm 6 mps 734 mmHg 82%
    16:00 +19°C° 1.2 mm 5 mps 734 mmHg 88%
    17:00 +17°C° 1.2 mm 4 mps 735 mmHg 94%
    18:00 +16°C° 0.2 mm 3 mps 735 mmHg 94%
    19:00 +13°C° 0.2 mm 3 mps 736 mmHg 94%
    20:00 +13°C° 0.2 mm 2 mps 736 mmHg 94%
    21:00 +12°C° 0 mm 3 mps 737 mmHg 94%
    22:00 +11°C° 0 mm 3 mps 737 mmHg 95%
    23:00 +11°C° 0 mm 3 mps 737 mmHg 95%

    23 June, Saturday

    Time Temperature Precipitation Wind Pressure Humidity
    00:00 +11°C° 0 mm 3 mps 738 mmHg 96%
    01:00 +12°C° 0 mm 2 mps 738 mmHg 96%
    02:00 +12°C° 0 mm 2 mps 738 mmHg 97%
    03:00 +12°C° 0 mm 2 mps 739 mmHg 96%
    04:00 +12°C° 0 mm 2 mps 739 mmHg 95%
    05:00 +12°C° 0 mm 2 mps 739 mmHg 94%
    06:00 +13°C° 0 mm 2 mps 739 mmHg 89%
    07:00 +14°C° 0 mm 2 mps 740 mmHg 85%
    08:00 +15°C° 0 mm 2 mps 740 mmHg 80%
    09:00 +15°C° 0 mm 2 mps 740 mmHg 79%
    10:00 +15°C° 0 mm 2 mps 740 mmHg 77%
    11:00 +15°C° 0 mm 2 mps 740 mmHg 75%
    12:00 +15°C° 0.2 mm 2 mps 740 mmHg 79%
    13:00 +14°C° 0.2 mm 2 mps 740 mmHg 83%
    14:00 +14°C° 0.2 mm 2 mps 740 mmHg 87%
    15:00 +13°C° 0.6 mm 2 mps 740 mmHg 89%
    16:00 +13°C° 0.6 mm 1 mps 740 mmHg 91%
    17:00 +12°C° 0.6 mm 1 mps 740 mmHg 93%
    18:00 +12°C° 0.8 mm 1 mps 740 mmHg 94%
    19:00 +11°C° 0.8 mm 1 mps 739 mmHg 95%
    20:00 +11°C° 0.8 mm 1 mps 739 mmHg 96%
    21:00 +11°C° 1.1 mm 1 mps 739 mmHg 96%
    22:00 +9°C° 1.1 mm 2 mps 738 mmHg 97%
    23:00 +9°C° 1.1 mm 2 mps 738 mmHg 97%

    24 June, Sunday

    Time Temperature Precipitation Wind Pressure Humidity
    00:00 +9°C° 1.2 mm 2 mps 738 mmHg 97%
    01:00 +9°C° 1.2 mm 3 mps 737 mmHg 97%
    02:00 +9°C° 1.2 mm 3 mps 737 mmHg 97%
    03:00 +9°C° 2.7 mm 3 mps 736 mmHg 97%
    04:00 +9°C° 2.7 mm 3 mps 736 mmHg 97%
    05:00 +8°C° 2.7 mm 4 mps 735 mmHg 98%
    06:00 +10°C° 0.6 mm 3 mps 735 mmHg 97%
    07:00 +10°C° 0.6 mm 3 mps 735 mmHg 97%
    08:00 +10°C° 0.6 mm 3 mps 734 mmHg 97%
    09:00 +11°C° 0.3 mm 3 mps 734 mmHg 96%
    10:00 +11°C° 0.3 mm 3 mps 735 mmHg 96%
    11:00 +11°C° 0.3 mm 3 mps 735 mmHg 95%
    12:00 +11°C° 0.6 mm 3 mps 735 mmHg 95%
    13:00 +11°C° 0.6 mm 4 mps 736 mmHg 95%
    14:00 +10°C° 0.6 mm 5 mps 736 mmHg 95%
    15:00 +10°C° 0.3 mm 5 mps 736 mmHg 92%
    16:00 +12°C° 0.3 mm 5 mps 737 mmHg 88%
    17:00 +12°C° 0.3 mm 5 mps 738 mmHg 84%
    18:00 +12°C° 0 mm 4 mps 738 mmHg 86%
    19:00 +12°C° 0 mm 3 mps 738 mmHg 87%
    20:00 +12°C° 0 mm 2 mps 739 mmHg 89%
    21:00 +10°C° 0 mm 2 mps 739 mmHg 91%
    22:00 +9°C° 0 mm 2 mps 739 mmHg 93%
    23:00 +9°C° 0 mm 2 mps 740 mmHg 95%

    25 June, Monday

    Time Temperature Precipitation Wind Pressure Humidity
    00:00 +8°C° 0 mm 2 mps 740 mmHg 96%
    01:00 +8°C° 0 mm 2 mps 740 mmHg 96%
    02:00 +8°C° 0 mm 2 mps 740 mmHg 97%
    03:00 +9°C° 0 mm 2 mps 740 mmHg 95%
    04:00 +9°C° 0 mm 2 mps 741 mmHg 93%
    05:00 +10°C° 0 mm 2 mps 741 mmHg 92%
    06:00 +12°C° 0 mm 3 mps 741 mmHg 85%
    07:00 +13°C° 0 mm 3 mps 741 mmHg 78%
    08:00 +16°C° 0 mm 3 mps 741 mmHg 71%
    09:00 +17°C° 0.3 mm 3 mps 741 mmHg 72%
    10:00 +17°C° 0.3 mm 4 mps 741 mmHg 74%
    11:00 +18°C° 0.3 mm 4 mps 741 mmHg 75%
    12:00 +18°C° 0.7 mm 4 mps 741 mmHg 75%
    13:00 +18°C° 0.7 mm 4 mps 741 mmHg 75%
    14:00 +18°C° 0.7 mm 4 mps 741 mmHg 75%
    15:00 +18°C° 0.5 mm 3 mps 741 mmHg 76%
    16:00 +18°C° 0.5 mm 3 mps 741 mmHg 77%
    17:00 +18°C° 0.5 mm 2 mps 741 mmHg 78%
    18:00 +17°C° 0.4 mm 2 mps 741 mmHg 83%
    19:00 +15°C° 0.4 mm 2 mps 741 mmHg 88%
    20:00 +14°C° 0.4 mm 2 mps 741 mmHg 94%
    21:00 +13°C° 0.1 mm 2 mps 741 mmHg 94%
    22:00 +12°C° 0.1 mm 2 mps 741 mmHg 95%
    23:00 +10°C° 0.1 mm 2 mps 741 mmHg 96%
    Show more